Regional Weather Roundup
Issued by NWS Newport/Morehead, NC

Home | Current Version | Previous Version | Text Only | Print | Product List | Glossary On
Versions: 1 2 3 4 5 6 7 8 9 10 11 12 13 14 15 16 17 18 19 20 21 22 23 24 25 26 27 28 29 30 31 32 33 34 35 36 37 38 39 40 41 42 43 44 45 46 47 48 49 50
000
ASUS42 KMHX 271822
RWRMHX
WEATHER ROUNDUP FOR EASTERN NORTH CAROLINA
NATIONAL WEATHER SERVICE NEWPORT/MOREHEAD CITY NC
100 PM EST SAT DEC 27 2014

NOTE: "FAIR" INDICATES FEW OR NO CLOUDS BELOW 12,000 FEET
WITH NO SIGNIFICANT WEATHER AND/OR OBSTRUCTIONS TO VISIBILITY

NCZ015>017-031-032-045>047-102-103-271900-
NORTH COAST

CITY           SKY/WX    TMP DP  RH WIND       PRES   REMARKS
EDENTON        SUNNY     58  40  50 S3        30.26F
ELIZABETH CITY SUNNY     61  39  44 S6        30.27F
KITTY HAWK     CLEAR     56  38  51 CALM      30.25F
MANTEO         SUNNY     54  43  66 SW6       30.28F

$$

NCZ045>047-081-094-103-104-271900-
CENTRAL COAST

CITY           SKY/WX    TMP DP  RH WIND       PRES   REMARKS
FRISCO         SUNNY     55  42  61 VRB5      30.28F
SWANQUARTER      N/A     59 N/A N/A S5        30.24S

$$

NCZ095-097-098-100-101-271900-
SOUTHERN COAST

CITY           SKY/WX    TMP DP  RH WIND       PRES   REMARKS
BEAUFORT       SUNNY     60  40  47 CALM      30.29F
CEDAR ISLAND     N/A     52 N/A N/A N2        30.30F
JACKSONVILLE   SUNNY     58  38  47 E6        30.27F
PINEY ISLAND   CLEAR     59  36  42 VRB5      30.29F
WILMINGTON     SUNNY     63  40  42 VRB3      30.27F


$$

NCZ011>013-027>030-043-044-078>080-089-090>093-098-271900-
COASTAL PLAIN

CITY           SKY/WX    TMP DP  RH WIND       PRES   REMARKS
AHOSKIE        SUNNY     60  37  43 S3        30.27S
CLINTON        SUNNY     61  40  46 SW6       30.27F
ELIZABETHTOWN  SUNNY     61  38  42 SW3       30.27F
GOLDSBORO      SUNNY     60  42  50 S5        30.25F
GREENVILLE     SUNNY     61  37  41 SW5       30.26F
HAVELOCK       SUNNY     60  38  43 CALM      30.29F
KENANSVILLE    SUNNY     60  35  39 S3        30.28F
KINSTON        SUNNY     59  37  44 SW3       30.27F
NEW BERN       SUNNY     63  40  42 CALM      30.28F
RICHLANDS      SUNNY     63  39  42 S6        30.27F
ROCKY MOUNT    SUNNY     60  37  42 SW7       30.27F
WASHINGTON     SUNNY     58  37  45 CALM      30.26F
WHITEVILLE     SUNNY     63  39  42 SW5       30.26F

$$

AMZ130-135-150-152-154-156-158-170-250-252-270-ANZ085-086-088-633-658-670-271900-
MARINE OBSERVATIONS

STATION/POSITION TIME  TEMP    WIND        PRES    WAVE   SWELL
                       AIR SEA DIR/SP/G            HT/PER HT/PER
                 (UTC) (F)     (DEG/KT/KT) (MB)    (FT/S) (FT/S)
CHESAPEAKE LIGHT 1800   48     190/ 12/ 12 1024.7
64 E VA BEACH    1800   52 53  220/  8/ 10 1025.1    2/16   2/16
DUCK             1800   54 49  180/  5/  6 1023.9
2 E DUCK         1800      50                N/A     2/17   2/17
10 NE DUCK       1800      51                N/A     3/17   2/17
OREGON INLET     1800   53 53  170/  5/  6 1025.3
13E OREGON INLT  1800      51                N/A     3/17   2/17
HATTERAS CG      1800   52 53  340/  5/  5 1025.6
DIAMOND BUOY     1800   61                 1025.6    3/16
17 S OCRACOKE    NOT AVBL
CAPE LOOKOUT     1800   58     320/  1/  2 1025.6
BEAUFORT LAB     1800   58 54  190/  5/  5 1024.4
30 SE NEW RIVER  1800   58 62  360/  4/  6 1026.1    2/16   2/16
5 SE WRIGHTSVLE  NOT AVBL
225 S CAPE HAT   1651   69 74   90/  6/ 10 1025.8    4/16   3/16
41 SE CHARLESTON 1800   65 74   20/ 12/ 16 1024.7    2/ 9   2/ 9

$$


USA.gov is the U.S. government's official web portal to all federal, state and local government web resources and services.